[[{"header":{"parameterUnit":"m.s-1","parameterCategory":2,"la1":30.2991,"la2":30.254,"lo1":-89.0895,"lo2":-89.0444,"dy":0.0017,"dx":0.0017,"nx":28,"ny":28,"refTime":"2025-04-19T21:00:00:Z","depth":"0","parameterNumber":2,"parameterNumberName":"U-component_of_CURRENTS"},"data":[0,0,0,0,0,0,0,0,0,0,0,0,0,0,0,0,0,0,0,0,0,0,0,0,0,0,0,0,0,0,0,0,0,0,0,0,0,0,0,0,0,0,0,0,0,0,0,0,0,0,0,0,0,0,0,0,0,0,0.1809,0.1809,0,0.1796,0.1796,0.1795,0.1781,0.1781,0.1781,0.1781,0.1753,0.1753,0.1752,0,0,0,0,0,0,0,0,0,0,0,0,0,0.1848,0.1847,0.1809,0.1809,0.1809,0.1796,0.1796,0.1795,0.1781,0.1781,0.1781,0.1781,0.1754,0.1753,0.1752,0,0,0,0,0,0,0,0,0,0,0,0,0,0.183,0.1846,0.1809,0.1802,0.1801,0.1796,0.1796,0.1795,0.1781,0.1781,0.1781,0.1781,0.1754,0.1753,0.1752,0.1746,0,0,0.1749,0.1748,0,0,0,0,0,0,0,0,0.1831,0.1829,0.1803,0.1802,0.1802,0.1792,0.1799,0.1779,0.1781,0.1786,0.1781,0.1781,0.1766,0.1764,0.1759,0.1745,0.1743,0.1749,0.1748,0.1747,0.1747,0,0,0,0,0,0,0,0.1832,0.1829,0.1802,0.1803,0.1802,0.1808,0.1805,0.1795,0.1775,0.1786,0.1785,0.1787,0.1766,0.176,0.1758,0.1743,0.1749,0.1748,0.1747,0.1747,0.1794,0.1796,0,0,0,0,0,0,0.1837,0.183,0.1802,0.1802,0.1819,0.1808,0.1804,0.1793,0.1775,0.1773,0.1787,0.1787,0.1762,0.176,0.1757,0.1808,0.1747,0.1746,0.1746,0.1793,0.1795,0.1797,0,0,0,0,0,0,0.1837,0.1834,0.1803,0.1818,0.1815,0.1807,0.1795,0.1793,0.1795,0.1777,0.1774,0.1792,0.1762,0.1759,0.1766,0.1804,0.1746,0.1745,0.179,0.1793,0.1796,0.1871,0,0,0,0,0,0,0.1838,0.1834,0.1828,0.1818,0.1814,0.181,0.1795,0.1793,0.1796,0.1795,0.178,0.1776,0.1762,0.1768,0.1765,0.1802,0.1744,0.1788,0.1792,0.1795,0.1866,0.1876,0.1884,0,0,0,0,0,0.1839,0.183,0.1827,0.1824,0.1806,0.1811,0.181,0.1803,0.1797,0.1803,0.1798,0.1777,0.1789,0.1768,0.1764,0.1802,0.1786,0.1791,0.1795,0.1862,0.1874,0.1884,0,0,0,0,0,0,0.1837,0.1828,0.1824,0.181,0.1817,0.181,0.1812,0.1809,0.1808,0.1808,0.1789,0.1787,0.1816,0.1796,0.1773,0.1829,0.1789,0.1793,0.1842,0.1853,0.1862,0.1868,0.1743,0,0,0,0,0,0.1836,0.1828,0.1828,0.1818,0.1823,0.182,0.1821,0.182,0.1819,0.1818,0.1811,0.1811,0.183,0.1829,0.1835,0.185,0.1851,0.1877,0.1887,0.1894,0.1899,0.1956,0.1971,0.1811,0.1811,0.1811,0,0,0.183,0.1826,0.182,0.1818,0.182,0.1837,0.182,0.1827,0.1847,0.1815,0.1835,0.1842,0.1843,0.1874,0.1885,0.186,0.1938,0.19,0.1907,0.1907,0.1962,0.1978,0.1992,0.1814,0.1813,0.1813,0,0,0.183,0.1816,0.182,0.1831,0.1843,0.1847,0.1855,0.1859,0.1867,0.1885,0.1886,0.1916,0.1915,0.1939,0.1948,0.201,0.1992,0.2014,0.2056,0.2112,0.2126,0.2137,0.2147,0.2159,0.2011,0.2011,0.2012,0,0.183,0.1828,0.1824,0.1841,0.1853,0.1857,0.1877,0.1891,0.1899,0.1915,0.1901,0.1953,0.1953,0.2014,0.2041,0.2033,0.2042,0.2012,0.2124,0.2136,0.2147,0.2154,0.2166,0.2016,0.2015,0.2015,0.2014,0,0.184,0.1846,0.1852,0.1876,0.1888,0.1905,0.1928,0.1947,0.1955,0.1973,0.2029,0.2041,0.207,0.2089,0.208,0.2167,0.2141,0.2136,0.2095,0.2168,0.217,0.2182,0.2021,0.202,0.2019,0.2018,0,0,0.1831,0.1855,0.186,0.1874,0.1909,0.1918,0.196,0.1999,0.2031,0.206,0.2105,0.216,0.2168,0.2181,0.219,0.2239,0.2324,0.222,0.2221,0.2226,0.242,0.2352,0.2357,0.2342,0.2345,0.2347,0.2385,0,0.1848,0.1874,0.1887,0.1922,0.1939,0.1964,0.1999,0.2037,0.2071,0.2117,0.2163,0.2209,0.2204,0.2224,0.228,0.2315,0.236,0.2312,0.2351,0.2351,0.2281,0.2372,0.2295,0.2319,0.2396,0.2398,0.2399,0,0.186,0.1876,0.1902,0.194,0.195,0.1973,0.2026,0.2061,0.2135,0.2165,0.2229,0.2256,0.2336,0.232,0.2423,0.2391,0.2414,0.2437,0.2439,0.2358,0.2306,0.2262,0.2337,0.2283,0.2417,0.2415,0.2414,0,0.1845,0.1889,0.1903,0.1918,0.1962,0.198,0.2008,0.2072,0.2107,0.2199,0.2233,0.2326,0.2365,0.2433,0.2468,0.2458,0.2566,0.2553,0.2512,0.2505,0.2438,0.242,0.2463,0.2637,0.2637,0.2637,0.2637,0,0.1852,0.1869,0.1895,0.1903,0.1929,0.1965,0.2005,0.2053,0.2126,0.2177,0.2251,0.2306,0.2401,0.2461,0.2496,0.2532,0.2588,0.2537,0.2528,0.2458,0.2443,0.2387,0.2337,0.2638,0.2638,0.2638,0.2638,0,0.1834,0.185,0.1869,0.1907,0.1917,0.1933,0.1987,0.2024,0.2095,0.2164,0.2194,0.2307,0.2388,0.2452,0.2555,0.255,0.2517,0.2594,0.2479,0.2456,0.2352,0.2307,0.2229,0.2134,0.2563,0.2562,0.2561,0,0.1828,0.1833,0.1856,0.1861,0.1876,0.1904,0.1926,0.1999,0.2045,0.2159,0.2194,0.2292,0.2358,0.246,0.2494,0.2538,0.2467,0.247,0.2445,0.2352,0.2298,0.2199,0.2117,0.238,0.2378,0.2376,0.2374,0,0.182,0.1821,0.1831,0.1841,0.1854,0.1868,0.191,0.1935,0.2025,0.2081,0.2166,0.2225,0.233,0.2358,0.2404,0.2421,0.2329,0.2428,0.239,0.2209,0.2049,0.195,0.2315,0.2357,0.2358,0.236,0.2361,0.2361,0.1814,0.1814,0.1819,0.1827,0.1831,0.1829,0.1821,0.1873,0.1915,0.1975,0.2081,0.2129,0.2225,0.2291,0.2291,0.2236,0.2198,0.2184,0.2151,0.2071,0.1938,0.2237,0.2231,0.2232,0.2233,0.2233,0.2234,0,0.1817,0.1813,0.1812,0.1802,0.1778,0.1793,0.1807,0.1784,0.1796,0.1878,0.193,0.1997,0.2029,0.2092,0.2094,0.2,0.1901,0.1924,0.1798,0.174,0.2079,0.2032,0.1913,0.1913,0.1913,0.1913,0.1913,0.1913,0.1819,0.1812,0.1805,0.1753,0.1733,0.1671,0.1654,0.1629,0.1659,0.1663,0.1693,0.1754,0.188,0.1942,0.1876,0.1815,0.165,0.1556,0.1514,0.18,0.1823,0.1844,0.1793,0.1626,0.1625,0.1125,0.1121,0.1118]},{"header":{"parameterUnit":"m.s-1","parameterCategory":2,"la1":30.2991,"la2":30.254,"lo1":-89.0895,"lo2":-89.0444,"dy":0.0017,"dx":0.0017,"nx":28,"ny":28,"refTime":"2025-04-19T21:00:00:Z","depth":"0","parameterNumber":3,"parameterNumberName":"V-component_of_CURRENTS"},"data":[0,0,0,0,0,0,0,0,0,0,0,0,0,0,0,0,0,0,0,0,0,0,0,0,0,0,0,0,0,0,0,0,0,0,0,0,0,0,0,0,0,0,0,0,0,0,0,0,0,0,0,0,0,0,0,0,0,0,-0.0014,-0.0014,0,-0.0055,-0.0055,-0.0056,-0.0074,-0.0074,-0.0074,-0.0074,-0.0112,-0.0113,-0.0114,0,0,0,0,0,0,0,0,0,0,0,0,0,0.0049,0.0048,-0.0014,-0.0014,-0.0015,-0.0055,-0.0055,-0.0056,-0.0074,-0.0074,-0.0074,-0.0074,-0.0112,-0.0113,-0.0114,0,0,0,0,0,0,0,0,0,0,0,0,0,0.0017,0.0048,-0.0014,-0.0029,-0.003,-0.0055,-0.0055,-0.0056,-0.0074,-0.0074,-0.0074,-0.0074,-0.0111,-0.0113,-0.0114,-0.0126,0,0,-0.0119,-0.012,0,0,0,0,0,0,0,0,0.0019,0.0014,-0.0026,-0.0028,-0.003,-0.0059,-0.0047,-0.0079,-0.0074,-0.0057,-0.0074,-0.0074,-0.0094,-0.0097,-0.0105,-0.0127,-0.0129,-0.0119,-0.012,-0.0121,-0.0122,0,0,0,0,0,0,0,0.0021,0.0016,-0.003,-0.0027,-0.0029,-0.0033,-0.0038,-0.0053,-0.0075,-0.0058,-0.006,-0.0065,-0.0095,-0.0103,-0.0106,-0.013,-0.0119,-0.0121,-0.0122,-0.0122,-0.0157,-0.0157,0,0,0,0,0,0,0.0025,0.0018,-0.0029,-0.0031,-0.0005,-0.0035,-0.004,-0.005,-0.0075,-0.0079,-0.0065,-0.0066,-0.0101,-0.0104,-0.0107,-0.0108,-0.0121,-0.0123,-0.0124,-0.0157,-0.0157,-0.0157,0,0,0,0,0,0,0.0027,0.0021,-0.0027,-0.0007,-0.0014,-0.0036,-0.0047,-0.0051,-0.0056,-0.008,-0.0084,-0.0066,-0.0101,-0.0105,-0.0116,-0.011,-0.0123,-0.0125,-0.0157,-0.0157,-0.0157,-0.0119,0,0,0,0,0,0,0.0028,0.0022,0.0019,-0.0007,-0.0015,-0.0035,-0.0047,-0.0051,-0.006,-0.0061,-0.0083,-0.0087,-0.0101,-0.0113,-0.0117,-0.0113,-0.0126,-0.0157,-0.0157,-0.0157,-0.012,-0.0117,-0.0115,0,0,0,0,0,0.0031,0.0027,0.0019,0.0014,-0.0019,-0.0034,-0.0038,-0.0054,-0.006,-0.0059,-0.0074,-0.0086,-0.0116,-0.0114,-0.0119,-0.0115,-0.0157,-0.0157,-0.0157,-0.0121,-0.0118,-0.0115,0,0,0,0,0,0,0.0053,0.0024,0.0015,0.0002,-0.0012,-0.0037,-0.004,-0.0051,-0.0063,-0.0063,-0.0085,-0.009,-0.0098,-0.0113,-0.0111,-0.0126,-0.0139,-0.014,-0.011,-0.0107,-0.0105,-0.0091,-0.0127,0,0,0,0,0,0.0057,0.0047,0.0021,0.0013,0.0006,-0.0016,-0.0024,-0.0034,-0.005,-0.0056,-0.0071,-0.0088,-0.0103,-0.0109,-0.0125,-0.0132,-0.0142,-0.0133,-0.0131,-0.0128,-0.0122,-0.0135,-0.0133,-0.0157,-0.0157,-0.0157,0,0,0.0064,0.0047,0.0041,0.0018,0.0004,0.0002,-0.002,-0.003,-0.0028,-0.0058,-0.006,-0.0081,-0.0104,-0.0111,-0.0116,-0.0121,-0.0127,-0.0128,-0.0126,-0.012,-0.0135,-0.0133,-0.013,-0.0157,-0.0157,-0.0157,0,0,0.0077,0.0058,0.0056,0.0047,0.0029,0.0017,0.0016,-0.0007,-0.0014,-0.0022,-0.0043,-0.0059,-0.0081,-0.0094,-0.0104,-0.0099,-0.0115,-0.0106,-0.008,-0.0093,-0.0091,-0.0089,-0.0094,-0.0093,-0.0102,-0.0102,-0.0102,0,0.0088,0.0081,0.0055,0.0054,0.0054,0.0027,0.0034,0.0021,0.0,-0.0,-0.0016,-0.0048,-0.0072,-0.0077,-0.0078,-0.0092,-0.0099,-0.0087,-0.0088,-0.0087,-0.0086,-0.0092,-0.0091,-0.01,-0.01,-0.01,-0.0101,0,0.0101,0.0099,0.0099,0.009,0.0087,0.0088,0.007,0.0065,0.0051,0.0041,0.0028,-0.0008,-0.0023,-0.0038,-0.0058,-0.006,-0.0068,-0.0085,-0.0093,-0.0081,-0.0088,-0.0088,-0.0097,-0.0098,-0.0099,-0.0099,0,0,0.012,0.011,0.0112,0.0121,0.0108,0.0109,0.0111,0.0108,0.0123,0.0088,0.0101,0.0056,0.0036,0.0023,-0.0007,-0.0024,-0.0029,-0.0048,-0.005,-0.0046,-0.005,-0.0053,-0.0053,-0.0045,-0.0045,-0.0045,-0.0056,0,0.0142,0.0154,0.0142,0.0166,0.0175,0.0158,0.0166,0.0161,0.0157,0.0163,0.0118,0.0114,0.0061,0.0055,0.0028,-0.0008,-0.0028,-0.0024,-0.0067,-0.0068,-0.0067,-0.0053,-0.0014,-0.002,-0.0056,-0.0056,-0.0056,0,0.0163,0.017,0.0192,0.021,0.0213,0.0222,0.0242,0.0248,0.0245,0.0241,0.0224,0.0194,0.0164,0.0114,0.0054,0.0061,0.0008,-0.003,-0.0032,-0.0047,-0.0072,-0.004,-0.0019,-0.009,-0.0057,-0.0057,-0.0057,0,0.0196,0.0211,0.0232,0.0237,0.0246,0.0256,0.0264,0.0272,0.0296,0.0295,0.0313,0.0267,0.0256,0.0181,0.0097,0.0078,0.0035,-0.0001,-0.0056,-0.0057,-0.0038,-0.0037,-0.0085,-0.0051,-0.0051,-0.0051,-0.0051,0,0.0226,0.0247,0.0249,0.0263,0.03,0.0292,0.0338,0.034,0.0365,0.0414,0.0357,0.0385,0.0272,0.0231,0.0135,0.0052,0.0063,-0.0044,-0.0059,-0.0024,-0.0021,-0.0095,-0.0155,-0.0052,-0.0052,-0.0051,-0.0051,0,0.0259,0.0256,0.0288,0.0305,0.0315,0.0342,0.0388,0.043,0.0437,0.0501,0.0503,0.0482,0.0435,0.032,0.0217,0.0117,-0.0024,-0.0013,0.004,0.0031,-0.0097,-0.0156,-0.0253,-0.0316,-0.0073,-0.0073,-0.0073,0,0.0277,0.0294,0.0326,0.0354,0.0363,0.0404,0.0441,0.0462,0.0519,0.0571,0.0613,0.0584,0.0589,0.0436,0.0266,0.011,-0.001,0.0018,-0.0024,-0.009,-0.0167,-0.023,-0.0282,0.0019,0.0019,0.002,0.002,0,0.032,0.0327,0.0354,0.041,0.0451,0.0505,0.0562,0.0615,0.0659,0.0719,0.0797,0.0805,0.0671,0.0551,0.0324,0.0198,-0.004,0.0022,-0.0057,-0.0107,-0.0167,-0.0238,0.0013,0.0025,0.0025,0.0024,0.0024,0.0024,0.036,0.0387,0.0423,0.0478,0.0528,0.0601,0.0652,0.0734,0.0829,0.0923,0.0934,0.0972,0.0794,0.0504,0.0322,0.0034,-0.0017,-0.0055,-0.0122,-0.018,-0.0242,0.0019,0.0017,0.0017,0.0016,0.0016,0.0016,0,0.041,0.0438,0.0494,0.0554,0.0611,0.0629,0.0731,0.0792,0.0913,0.1018,0.1087,0.1047,0.0817,0.0542,0.017,-0.0052,-0.0174,-0.0178,-0.0249,-0.0299,-0.0057,-0.0052,-0.0055,-0.0055,-0.0055,-0.0055,-0.0055,-0.0055,0.044,0.0494,0.0518,0.061,0.0653,0.0727,0.0781,0.0886,0.0978,0.1106,0.1158,0.1186,0.1041,0.0389,-0.0053,-0.0182,-0.0378,-0.0405,-0.053,-0.0338,-0.0331,-0.0325,-0.0333,-0.0395,-0.0396,-0.0733,-0.0736,-0.0738]}],[{"header":{"parameterUnit":"m.s-1","parameterCategory":2,"la1":30.2991,"la2":30.254,"lo1":-89.0895,"lo2":-89.0444,"dy":0.0017,"dx":0.0017,"nx":28,"ny":28,"refTime":"2025-04-19T21:00:00:Z","depth":"2","parameterNumber":2,"parameterNumberName":"U-component_of_CURRENTS"},"data":[0,0,0,0,0,0,0,0,0,0,0,0,0,0,0,0,0,0,0,0,0,0,0,0,0,0,0,0,0,0,0,0,0,0,0,0,0,0,0,0,0,0,0,0,0,0,0,0,0,0,0,0,0,0,0,0,0,0,0.1837,0.1837,0,0.1826,0.1826,0.1826,0.1814,0.1814,0.1814,0.1814,0.179,0.1789,0.1789,0,0,0,0,0,0,0,0,0,0,0,0,0,0.1874,0.1873,0.1837,0.1837,0.1837,0.1826,0.1826,0.1826,0.1814,0.1814,0.1814,0.1814,0.179,0.1789,0.1789,0,0,0,0,0,0,0,0,0,0,0,0,0,0.1858,0.1873,0.1837,0.1831,0.1831,0.1826,0.1826,0.1826,0.1814,0.1814,0.1814,0.1814,0.179,0.1789,0.1788,0.1782,0,0,0.1786,0.1785,0,0,0,0,0,0,0,0,0.1859,0.1857,0.1832,0.1832,0.1831,0.1823,0.1831,0.1811,0.1814,0.1818,0.1814,0.1814,0.1801,0.1799,0.1795,0.1781,0.178,0.1785,0.1785,0.1784,0.1784,0,0,0,0,0,0,0,0.186,0.1857,0.1831,0.1832,0.1832,0.1839,0.1836,0.1827,0.1808,0.1818,0.1817,0.1819,0.18,0.1795,0.1794,0.178,0.1785,0.1785,0.1784,0.1784,0.1835,0.1837,0,0,0,0,0,0,0.1864,0.1858,0.1831,0.1831,0.1848,0.1838,0.1835,0.1824,0.1808,0.1806,0.1819,0.1819,0.1797,0.1795,0.1793,0.1846,0.1784,0.1784,0.1783,0.1833,0.1836,0.1838,0,0,0,0,0,0,0.1865,0.1861,0.1831,0.1847,0.1844,0.1838,0.1825,0.1824,0.1826,0.181,0.1808,0.1824,0.1797,0.1794,0.1803,0.1843,0.1783,0.1782,0.1831,0.1834,0.1837,0.1913,0,0,0,0,0,0,0.1865,0.1861,0.1856,0.1846,0.1843,0.1839,0.1825,0.1824,0.1828,0.1827,0.1813,0.1811,0.1797,0.1804,0.1802,0.184,0.1781,0.1829,0.1833,0.1836,0.1908,0.1918,0.1926,0,0,0,0,0,0.1867,0.1857,0.1855,0.1852,0.1834,0.184,0.1839,0.1834,0.1828,0.1835,0.1831,0.1811,0.1827,0.1805,0.1801,0.184,0.1827,0.1831,0.1836,0.1903,0.1916,0.1926,0,0,0,0,0,0,0.1864,0.1855,0.1852,0.1838,0.1846,0.1839,0.1842,0.184,0.184,0.184,0.1823,0.1821,0.1852,0.1833,0.1809,0.1869,0.1829,0.1833,0.1882,0.1893,0.1902,0.1908,0.1781,0,0,0,0,0,0.1863,0.1856,0.1855,0.1846,0.1851,0.1849,0.185,0.1851,0.185,0.185,0.1844,0.1847,0.1867,0.1867,0.1875,0.1891,0.1892,0.192,0.1929,0.1937,0.1942,0.2,0.2015,0.1852,0.1852,0.1852,0,0,0.1858,0.1854,0.1848,0.1846,0.1849,0.1866,0.1849,0.1858,0.1878,0.1847,0.187,0.1878,0.1881,0.1914,0.1926,0.19,0.1981,0.1943,0.195,0.195,0.2006,0.2022,0.2036,0.1855,0.1855,0.1854,0,0,0.1858,0.1844,0.1848,0.186,0.1873,0.1877,0.1885,0.189,0.1899,0.1919,0.1921,0.1953,0.1955,0.1981,0.1991,0.2055,0.2035,0.2059,0.2102,0.2159,0.2172,0.2185,0.219,0.2203,0.2056,0.2056,0.2057,0,0.1858,0.1857,0.1852,0.187,0.1882,0.1888,0.1907,0.1923,0.1933,0.195,0.1937,0.1992,0.1995,0.2057,0.2086,0.2078,0.2086,0.2057,0.2171,0.2183,0.2195,0.2198,0.221,0.2061,0.206,0.206,0.2059,0,0.1869,0.1876,0.1883,0.1907,0.1919,0.1937,0.1961,0.1981,0.1992,0.2011,0.2069,0.2083,0.2114,0.2135,0.2126,0.2215,0.2186,0.2182,0.2141,0.2216,0.2214,0.2225,0.2067,0.2065,0.2064,0.2063,0,0,0.186,0.1885,0.1891,0.1906,0.1941,0.1949,0.1995,0.2035,0.2068,0.21,0.2147,0.2206,0.2214,0.2228,0.2238,0.2289,0.2373,0.2269,0.227,0.2271,0.2467,0.239,0.2395,0.2392,0.2395,0.2398,0.2428,0,0.1877,0.1905,0.1918,0.1955,0.1973,0.1997,0.2035,0.2074,0.211,0.2158,0.2206,0.2254,0.2251,0.2271,0.2329,0.2365,0.241,0.2363,0.2397,0.2398,0.2319,0.2409,0.2203,0.2209,0.2439,0.2441,0.2442,0,0.1891,0.1908,0.1934,0.1973,0.1983,0.2008,0.2062,0.2097,0.2174,0.2206,0.2271,0.2299,0.2382,0.2367,0.2471,0.244,0.2462,0.2486,0.2487,0.2398,0.2344,0.2176,0.2221,0.2461,0.246,0.2458,0.2457,0,0.1875,0.1921,0.1936,0.195,0.1996,0.2014,0.2043,0.2109,0.2145,0.2238,0.2273,0.2369,0.2409,0.2477,0.2512,0.2504,0.2608,0.2599,0.2549,0.2541,0.2363,0.2335,0.2684,0.2684,0.2684,0.2684,0.2684,0,0.1882,0.1901,0.1928,0.1936,0.1963,0.1998,0.2039,0.2089,0.2163,0.2215,0.229,0.2347,0.2445,0.2502,0.2536,0.2567,0.2627,0.2573,0.2563,0.238,0.2355,0.2569,0.2556,0.2685,0.2684,0.2684,0.2684,0,0.1864,0.188,0.1901,0.194,0.1951,0.1967,0.2022,0.206,0.2131,0.2201,0.2231,0.2346,0.2424,0.2485,0.2587,0.2582,0.2627,0.2619,0.2371,0.2332,0.2512,0.2503,0.2582,0.258,0.2578,0.2577,0.2576,0,0.1857,0.1863,0.1888,0.1893,0.191,0.1939,0.1964,0.2037,0.2082,0.2195,0.223,0.2325,0.2382,0.2475,0.249,0.2521,0.2588,0.2341,0.2307,0.253,0.2512,0.2504,0.2497,0.2088,0.2083,0.2079,0.2075,0,0.185,0.1851,0.1862,0.1874,0.189,0.1906,0.1948,0.1974,0.2063,0.2116,0.2197,0.2247,0.2324,0.2273,0.2299,0.2294,0.2322,0.2258,0.2578,0.2148,0.2068,0.2048,0.2057,0.2038,0.2042,0.2045,0.2047,0.2048,0.1843,0.1847,0.1853,0.1863,0.1869,0.1869,0.1862,0.1912,0.195,0.1992,0.2088,0.2082,0.2109,0.2056,0.2002,0.1962,0.2141,0.2051,0.2063,0.2079,0.202,0.1941,0.1874,0.1876,0.1879,0.1881,0.1883,0,0.185,0.1849,0.185,0.1843,0.1818,0.1835,0.1849,0.182,0.1827,0.1863,0.1888,0.1727,0.1681,0.1706,0.1598,0.1611,0.1582,0.1537,0.1484,0.1523,0.1557,0.1469,0.1178,0.1176,0.1173,0.1171,0,0,0.1856,0.1851,0.1846,0.1794,0.1775,0.1718,0.1701,0.1669,0.1663,0.1591,0.1545,0.1616,0.1672,0.1405,0.1372,0.1261,0.1378,0.1203,0.1773,0.175,0.1782,0.1863,0.1773,0,0,0,0,0]},{"header":{"parameterUnit":"m.s-1","parameterCategory":2,"la1":30.2991,"la2":30.254,"lo1":-89.0895,"lo2":-89.0444,"dy":0.0017,"dx":0.0017,"nx":28,"ny":28,"refTime":"2025-04-19T21:00:00:Z","depth":"2","parameterNumber":3,"parameterNumberName":"V-component_of_CURRENTS"},"data":[0,0,0,0,0,0,0,0,0,0,0,0,0,0,0,0,0,0,0,0,0,0,0,0,0,0,0,0,0,0,0,0,0,0,0,0,0,0,0,0,0,0,0,0,0,0,0,0,0,0,0,0,0,0,0,0,0,0,-0.0062,-0.0062,0,-0.0103,-0.0103,-0.0103,-0.0121,-0.012,-0.012,-0.012,-0.0157,-0.0158,-0.0159,0,0,0,0,0,0,0,0,0,0,0,0,0,0.0002,0.0001,-0.0062,-0.0062,-0.0063,-0.0102,-0.0103,-0.0104,-0.0121,-0.012,-0.012,-0.012,-0.0157,-0.0158,-0.0159,0,0,0,0,0,0,0,0,0,0,0,0,0,-0.0031,0.0,-0.0062,-0.0076,-0.0078,-0.0102,-0.0103,-0.0104,-0.0121,-0.012,-0.012,-0.012,-0.0156,-0.0158,-0.016,-0.0171,0,0,-0.0164,-0.0165,0,0,0,0,0,0,0,0,-0.0029,-0.0033,-0.0073,-0.0075,-0.0077,-0.0107,-0.0094,-0.0126,-0.0121,-0.0104,-0.012,-0.012,-0.014,-0.0143,-0.0151,-0.0172,-0.0174,-0.0164,-0.0165,-0.0166,-0.0166,0,0,0,0,0,0,0,-0.0027,-0.0032,-0.0078,-0.0074,-0.0076,-0.0081,-0.0085,-0.01,-0.0122,-0.0106,-0.0107,-0.0112,-0.0141,-0.0149,-0.0152,-0.0175,-0.0164,-0.0166,-0.0167,-0.0167,-0.02,-0.0199,0,0,0,0,0,0,-0.0023,-0.003,-0.0076,-0.0079,-0.0053,-0.0082,-0.0087,-0.0097,-0.0122,-0.0126,-0.0112,-0.0113,-0.0146,-0.015,-0.0153,-0.0151,-0.0166,-0.0167,-0.0168,-0.02,-0.02,-0.0199,0,0,0,0,0,0,-0.0021,-0.0027,-0.0075,-0.0055,-0.0061,-0.0083,-0.0094,-0.0098,-0.0103,-0.0127,-0.013,-0.0113,-0.0147,-0.0151,-0.016,-0.0154,-0.0168,-0.017,-0.02,-0.02,-0.02,-0.0159,0,0,0,0,0,0,-0.0019,-0.0026,-0.0028,-0.0055,-0.0062,-0.0082,-0.0095,-0.0099,-0.0107,-0.0108,-0.0129,-0.0133,-0.0147,-0.0158,-0.0162,-0.0156,-0.0171,-0.02,-0.02,-0.02,-0.016,-0.0157,-0.0155,0,0,0,0,0,-0.0017,-0.002,-0.0028,-0.0034,-0.0066,-0.0082,-0.0086,-0.0101,-0.0107,-0.0106,-0.012,-0.0132,-0.016,-0.0159,-0.0164,-0.0158,-0.02,-0.02,-0.02,-0.0161,-0.0158,-0.0155,0,0,0,0,0,0,0.0006,-0.0023,-0.0032,-0.0045,-0.0059,-0.0084,-0.0086,-0.0098,-0.0109,-0.0109,-0.0131,-0.0135,-0.0142,-0.0157,-0.0155,-0.0168,-0.0182,-0.0183,-0.0152,-0.0148,-0.0146,-0.0133,-0.0172,0,0,0,0,0,0.001,0.0,-0.0026,-0.0034,-0.0041,-0.0063,-0.007,-0.0081,-0.0096,-0.0101,-0.0116,-0.0133,-0.0147,-0.0152,-0.0168,-0.0173,-0.0184,-0.0173,-0.0171,-0.0168,-0.0161,-0.0175,-0.0172,-0.0199,-0.0199,-0.0199,0,0,0.0018,0.0,-0.0005,-0.0029,-0.0042,-0.0043,-0.0067,-0.0076,-0.0073,-0.0104,-0.0104,-0.0125,-0.0147,-0.0153,-0.0157,-0.0162,-0.0166,-0.0168,-0.0165,-0.016,-0.0174,-0.0172,-0.0169,-0.0199,-0.0199,-0.0199,0,0,0.0031,0.0012,0.0011,0.0002,-0.0016,-0.0028,-0.0028,-0.0051,-0.0058,-0.0065,-0.0085,-0.0101,-0.0121,-0.0134,-0.0144,-0.0136,-0.0153,-0.0143,-0.0115,-0.0128,-0.0126,-0.0124,-0.0129,-0.0128,-0.0139,-0.0139,-0.0139,0,0.0043,0.0036,0.001,0.001,0.001,-0.0018,-0.001,-0.0021,-0.0042,-0.0042,-0.0058,-0.0088,-0.0111,-0.0114,-0.0115,-0.0129,-0.0137,-0.0124,-0.0124,-0.0122,-0.0121,-0.0127,-0.0126,-0.0137,-0.0137,-0.0137,-0.0137,0,0.0057,0.0056,0.0056,0.0049,0.0045,0.0047,0.0029,0.0025,0.0011,0.0001,-0.0009,-0.0045,-0.0059,-0.0074,-0.0093,-0.0094,-0.0102,-0.012,-0.0129,-0.0115,-0.0123,-0.0123,-0.0134,-0.0135,-0.0135,-0.0136,0,0,0.0077,0.0068,0.007,0.008,0.0068,0.0069,0.0072,0.0071,0.0086,0.0052,0.0066,0.0023,0.0003,-0.001,-0.004,-0.0056,-0.006,-0.0081,-0.0082,-0.0079,-0.0081,-0.0085,-0.0086,-0.0077,-0.0076,-0.0076,-0.0087,0,0.0101,0.0114,0.0103,0.0128,0.0137,0.0121,0.013,0.0126,0.0122,0.0129,0.0085,0.0082,0.0029,0.0023,-0.0002,-0.0039,-0.0059,-0.0055,-0.0099,-0.01,-0.0101,-0.0086,-0.0085,-0.0094,-0.0087,-0.0087,-0.0087,0,0.0123,0.0131,0.0154,0.0173,0.0176,0.0185,0.0207,0.0214,0.0212,0.0208,0.0192,0.0163,0.0135,0.0084,0.0025,0.0031,-0.0022,-0.006,-0.0062,-0.0079,-0.0105,-0.0108,-0.0095,-0.0087,-0.0087,-0.0087,-0.0087,0,0.0156,0.0172,0.0194,0.0199,0.021,0.0221,0.0229,0.0238,0.0263,0.0263,0.0281,0.0237,0.0226,0.0152,0.0067,0.0049,0.0004,-0.003,-0.0087,-0.0088,-0.0102,-0.0104,-0.008,-0.008,-0.008,-0.008,-0.008,0,0.0186,0.0208,0.0211,0.0225,0.0263,0.0256,0.0303,0.0306,0.0331,0.0379,0.0324,0.0351,0.0241,0.02,0.0105,0.0021,0.0032,-0.0074,-0.0089,-0.0088,-0.0088,-0.0098,-0.01,-0.008,-0.008,-0.008,-0.008,0,0.0218,0.0216,0.0249,0.0267,0.0278,0.0305,0.0352,0.0393,0.0401,0.0464,0.0466,0.0446,0.0398,0.0285,0.0182,0.0085,-0.0006,-0.0046,-0.0032,-0.0045,-0.01,-0.01,-0.0105,-0.0105,-0.0105,-0.0105,-0.0105,0,0.0235,0.0252,0.0285,0.0313,0.0322,0.0364,0.0402,0.0425,0.0479,0.0531,0.0571,0.0541,0.0538,0.0386,0.0215,0.0058,0.0019,-0.0057,-0.0102,-0.0088,-0.0102,-0.0102,-0.0101,-0.0104,-0.0104,-0.0104,-0.0104,0,0.0274,0.0282,0.0308,0.0365,0.0407,0.0461,0.0518,0.0569,0.0614,0.0669,0.074,0.074,0.06,0.0448,0.0223,0.0107,-0.0033,-0.0064,-0.0046,-0.0098,-0.0088,-0.0102,-0.0102,-0.0105,-0.0105,-0.0105,-0.0105,-0.0105,0.0306,0.0336,0.0371,0.0428,0.0479,0.0551,0.0602,0.0674,0.0762,0.0821,0.0839,0.0813,0.0656,0.0356,0.0182,-0.0024,-0.0016,-0.0115,-0.0114,-0.0113,-0.0111,-0.0103,-0.0121,-0.0121,-0.0121,-0.0121,-0.0121,0,0.035,0.0382,0.0437,0.05,0.0554,0.0578,0.0678,0.0701,0.0802,0.0854,0.0889,0.0701,0.0558,0.0361,0.0065,-0.0095,-0.0119,-0.0162,-0.0159,-0.0157,-0.0155,-0.0155,-0.0177,-0.0177,-0.0178,-0.0179,0,0,0.0377,0.0426,0.0454,0.0542,0.0593,0.065,0.0702,0.0743,0.0771,0.0783,0.0773,0.0767,0.0573,0.0344,0.0141,-0.0026,-0.0066,-0.0067,-0.0006,0.0023,0.0026,-0.0109,-0.0104,0,0,0,0,0]}],[{"header":{"parameterUnit":"m.s-1","parameterCategory":2,"la1":30.2991,"la2":30.254,"lo1":-89.0895,"lo2":-89.0444,"dy":0.0017,"dx":0.0017,"nx":28,"ny":28,"refTime":"2025-04-19T21:00:00:Z","depth":"4","parameterNumber":2,"parameterNumberName":"U-component_of_CURRENTS"},"data":[0,0,0,0,0,0,0,0,0,0,0,0,0,0,0,0,0,0,0,0,0,0,0,0,0,0,0,0,0,0,0,0,0,0,0,0,0,0,0,0,0,0,0,0,0,0,0,0,0,0,0,0,0,0,0,0,0,0,0.1161,0.1162,0,0.1205,0.1206,0.1206,0.1245,0.1246,0.1246,0.1247,0.1296,0.1297,0.1298,0,0,0,0,0,0,0,0,0,0,0,0,0,0.1092,0.1093,0.1161,0.1162,0.1162,0.1205,0.1206,0.1206,0.1245,0.1246,0.1246,0.1247,0.1296,0.1297,0.1298,0,0,0,0,0,0,0,0,0,0,0,0,0,0.1127,0.1093,0.1161,0.1188,0.119,0.1205,0.1206,0.1206,0.1245,0.1246,0.1247,0.1247,0.1296,0.1297,0.1298,0.1289,0,0,0.1302,0.1302,0,0,0,0,0,0,0,0,0.1125,0.1129,0.1183,0.1186,0.1189,0.1221,0.12,0.1235,0.1245,0.1223,0.1247,0.1248,0.1272,0.1275,0.128,0.1292,0.1294,0.1302,0.1303,0.1303,0.1303,0,0,0,0,0,0,0,0.1122,0.1127,0.1178,0.1184,0.1187,0.1191,0.1197,0.1206,0.1242,0.1225,0.1228,0.1235,0.1273,0.1279,0.1282,0.1295,0.1302,0.1303,0.1304,0.1304,0.137,0.1371,0,0,0,0,0,0,0.1119,0.1125,0.1176,0.1179,0.1159,0.1192,0.1198,0.1209,0.1242,0.1248,0.1234,0.1236,0.1276,0.128,0.1283,0.1337,0.1303,0.1304,0.1305,0.1369,0.137,0.1371,0,0,0,0,0,0,0.1117,0.1123,0.1175,0.1153,0.116,0.1192,0.1204,0.121,0.1243,0.1248,0.1254,0.1264,0.1277,0.1282,0.1313,0.1337,0.1305,0.1306,0.1367,0.1369,0.137,0.1405,0,0,0,0,0,0,0.1115,0.1122,0.1143,0.1153,0.1162,0.1199,0.1204,0.121,0.1244,0.1248,0.1276,0.1279,0.1278,0.1311,0.1314,0.1338,0.1307,0.1366,0.1368,0.137,0.1403,0.1407,0.1412,0,0,0,0,0,0.1112,0.1132,0.1144,0.1151,0.1184,0.12,0.1205,0.1229,0.1245,0.1261,0.1281,0.128,0.1326,0.1313,0.1316,0.1341,0.1365,0.1368,0.137,0.1401,0.1407,0.1412,0,0,0,0,0,0,0.1116,0.1139,0.1151,0.1179,0.1197,0.1208,0.1231,0.1244,0.1272,0.1285,0.1291,0.1296,0.1331,0.1332,0.1318,0.1366,0.1346,0.1349,0.1368,0.1374,0.1379,0.138,0.1308,0,0,0,0,0,0.1125,0.1148,0.1164,0.119,0.1201,0.1221,0.1237,0.1251,0.1271,0.1286,0.1303,0.1322,0.1338,0.1354,0.1365,0.1391,0.14,0.141,0.1415,0.1419,0.1423,0.1449,0.1456,0.1378,0.1378,0.1378,0,0,0.1134,0.115,0.1165,0.1193,0.1211,0.1226,0.1234,0.1264,0.1282,0.1285,0.1326,0.1339,0.1348,0.1377,0.1394,0.1385,0.1449,0.1422,0.1425,0.1427,0.1452,0.1459,0.1466,0.138,0.138,0.1379,0,0,0.1148,0.1179,0.1197,0.1213,0.1242,0.1252,0.1266,0.129,0.1312,0.1343,0.1352,0.138,0.1407,0.1417,0.1425,0.1462,0.147,0.1472,0.1501,0.1526,0.1532,0.1538,0.1574,0.1583,0.1477,0.1477,0.1477,0,0.1159,0.1183,0.1205,0.1222,0.124,0.1265,0.1282,0.1304,0.1336,0.1355,0.1363,0.1413,0.1423,0.1456,0.1471,0.1472,0.1494,0.1478,0.1532,0.1537,0.1543,0.1578,0.1587,0.1479,0.1479,0.1479,0.1479,0,0.1174,0.1201,0.1215,0.1244,0.1266,0.1288,0.1313,0.1344,0.1373,0.139,0.1439,0.1456,0.1486,0.1496,0.1497,0.1543,0.155,0.1532,0.1516,0.1552,0.1588,0.1597,0.1482,0.1481,0.1481,0.148,0,0,0.1166,0.1216,0.1222,0.1239,0.1281,0.1294,0.1336,0.137,0.1401,0.1438,0.1479,0.1512,0.1533,0.1543,0.1555,0.1579,0.164,0.158,0.158,0.1615,0.1715,0.1603,0.1602,0.1636,0.1637,0.1638,0.173,0,0.117,0.1204,0.123,0.1263,0.128,0.1318,0.1352,0.139,0.1428,0.1473,0.1506,0.1549,0.1548,0.1578,0.1602,0.163,0.1663,0.1617,0.1676,0.1678,0.1572,0.1607,0.1643,0.1736,0.1738,0.174,0.1741,0,0.1166,0.1191,0.1229,0.1274,0.1286,0.1313,0.1374,0.1409,0.1473,0.1508,0.1559,0.1587,0.1645,0.1632,0.1705,0.1682,0.1707,0.1722,0.1725,0.1612,0.1581,0.1689,0.1757,0.1756,0.1754,0.1753,0.1752,0,0.1138,0.1184,0.1218,0.1234,0.1291,0.1322,0.136,0.1423,0.146,0.1542,0.158,0.1642,0.169,0.1727,0.1767,0.1749,0.1839,0.1812,0.1737,0.1731,0.1789,0.1782,0.1861,0.1861,0.186,0.186,0.186,0,0.1119,0.1142,0.1211,0.1227,0.1266,0.1316,0.1367,0.1417,0.1491,0.1531,0.1603,0.1641,0.1717,0.1771,0.1795,0.1795,0.1866,0.1749,0.1742,0.1804,0.1797,0.1797,0.1788,0.1864,0.1863,0.1862,0.1862,0,0.1077,0.1127,0.1161,0.123,0.1256,0.1287,0.1366,0.1394,0.1483,0.1542,0.1575,0.1666,0.1734,0.1796,0.1867,0.182,0.1838,0.1822,0.1909,0.1905,0.171,0.1703,0.1742,0.1738,0.1735,0.1733,0.1731,0,0.1056,0.1075,0.1156,0.1179,0.1214,0.1268,0.13,0.1386,0.1412,0.1536,0.1549,0.1655,0.1705,0.1717,0.1792,0.1836,0.1812,0.1811,0.1731,0.1706,0.1697,0.1694,0.169,0.1727,0.1726,0.1725,0.1725,0,0.1011,0.1055,0.1088,0.1138,0.1177,0.1205,0.1256,0.1263,0.1359,0.1454,0.1484,0.1524,0.1596,0.1644,0.1696,0.1719,0.18,0.1782,0.1786,0.1711,0.1689,0.1682,0.1681,0.1715,0.1716,0.1717,0.1718,0,0.0981,0.0992,0.1048,0.1077,0.1124,0.1123,0.1156,0.1178,0.1217,0.1342,0.1353,0.1469,0.157,0.1586,0.1633,0.1648,0.1618,0.1552,0.1568,0.158,0.1483,0.1429,0.1374,0,0,0,0,0,0.0942,0.0946,0.0975,0.1,0.1042,0.1068,0.1117,0.1148,0.1234,0.1216,0.1278,0.1337,0.1397,0.1459,0.1445,0.1578,0.1634,0.1554,0.1568,0.1661,0.1673,0.1573,0,0,0,0,0,0,0.0917,0.0947,0.0951,0.093,0.0933,0.0962,0.0988,0.1045,0.103,0.1131,0.1169,0.1258,0.1339,0.1402,0.1424,0.1445,0.1425,0.1632,0.1629,0.1655,0.1665,0.1674,0.1576,0,0,0,0,0]},{"header":{"parameterUnit":"m.s-1","parameterCategory":2,"la1":30.2991,"la2":30.254,"lo1":-89.0895,"lo2":-89.0444,"dy":0.0017,"dx":0.0017,"nx":28,"ny":28,"refTime":"2025-04-19T21:00:00:Z","depth":"4","parameterNumber":3,"parameterNumberName":"V-component_of_CURRENTS"},"data":[0,0,0,0,0,0,0,0,0,0,0,0,0,0,0,0,0,0,0,0,0,0,0,0,0,0,0,0,0,0,0,0,0,0,0,0,0,0,0,0,0,0,0,0,0,0,0,0,0,0,0,0,0,0,0,0,0,0,-0.0093,-0.0094,0,-0.0124,-0.0125,-0.0125,-0.0145,-0.0145,-0.0145,-0.0146,-0.0175,-0.0176,-0.0176,0,0,0,0,0,0,0,0,0,0,0,0,0,-0.0051,-0.0052,-0.0093,-0.0094,-0.0094,-0.0124,-0.0125,-0.0125,-0.0145,-0.0145,-0.0146,-0.0146,-0.0175,-0.0176,-0.0176,0,0,0,0,0,0,0,0,0,0,0,0,0,-0.0074,-0.0052,-0.0093,-0.0108,-0.011,-0.0124,-0.0125,-0.0125,-0.0145,-0.0145,-0.0146,-0.0146,-0.0175,-0.0176,-0.0177,-0.0177,0,0,-0.0179,-0.018,0,0,0,0,0,0,0,0,-0.0073,-0.0076,-0.0106,-0.0107,-0.0109,-0.0132,-0.0121,-0.0143,-0.0145,-0.0131,-0.0146,-0.0146,-0.0161,-0.0163,-0.0167,-0.0178,-0.018,-0.0179,-0.018,-0.018,-0.0181,0,0,0,0,0,0,0,-0.0071,-0.0074,-0.0105,-0.0106,-0.0108,-0.0114,-0.0117,-0.0125,-0.0143,-0.0132,-0.0134,-0.0138,-0.0162,-0.0166,-0.0168,-0.018,-0.0179,-0.018,-0.0181,-0.0181,-0.0186,-0.0185,0,0,0,0,0,0,-0.0068,-0.0073,-0.0104,-0.0106,-0.0092,-0.0114,-0.0118,-0.0124,-0.0144,-0.0147,-0.0138,-0.0139,-0.0165,-0.0167,-0.0169,-0.0153,-0.018,-0.0181,-0.0182,-0.0186,-0.0185,-0.0185,0,0,0,0,0,0,-0.0067,-0.0071,-0.0103,-0.0091,-0.0095,-0.0115,-0.0121,-0.0124,-0.0131,-0.0148,-0.0151,-0.0142,-0.0165,-0.0168,-0.0173,-0.0155,-0.0182,-0.0183,-0.0186,-0.0186,-0.0185,-0.0133,0,0,0,0,0,0,-0.0066,-0.007,-0.0072,-0.009,-0.0096,-0.0106,-0.0121,-0.0125,-0.0133,-0.0135,-0.0152,-0.0155,-0.0165,-0.0172,-0.0174,-0.0157,-0.0183,-0.0187,-0.0186,-0.0185,-0.0135,-0.013,-0.0126,0,0,0,0,0,-0.0064,-0.0064,-0.0072,-0.0076,-0.0098,-0.0106,-0.0108,-0.0123,-0.0133,-0.0131,-0.0144,-0.0155,-0.0168,-0.0172,-0.0175,-0.0158,-0.0187,-0.0186,-0.0185,-0.0137,-0.0131,-0.0126,0,0,0,0,0,0,-0.0046,-0.0067,-0.0076,-0.0082,-0.0091,-0.0109,-0.011,-0.0122,-0.0131,-0.0134,-0.0151,-0.0154,-0.0152,-0.0165,-0.0169,-0.0158,-0.0179,-0.0178,-0.0141,-0.0136,-0.0131,-0.0122,-0.0184,0,0,0,0,0,-0.0043,-0.0048,-0.0067,-0.007,-0.0075,-0.0093,-0.0099,-0.0109,-0.012,-0.0125,-0.0137,-0.0148,-0.015,-0.0151,-0.0159,-0.0154,-0.0171,-0.0145,-0.014,-0.0137,-0.0131,-0.0138,-0.0133,-0.0182,-0.0182,-0.0182,0,0,-0.0036,-0.0049,-0.0051,-0.0066,-0.0076,-0.0071,-0.0097,-0.0103,-0.0094,-0.0126,-0.012,-0.0135,-0.0146,-0.0138,-0.0138,-0.0146,-0.0134,-0.0135,-0.0132,-0.0128,-0.0136,-0.0131,-0.0127,-0.0181,-0.0181,-0.0181,0,0,-0.0021,-0.0037,-0.0034,-0.0038,-0.0051,-0.0058,-0.0059,-0.0076,-0.008,-0.008,-0.0096,-0.0099,-0.011,-0.0107,-0.0108,-0.0086,-0.0113,-0.0091,-0.0057,-0.0063,-0.0059,-0.0056,-0.0079,-0.0078,-0.0086,-0.0086,-0.0086,0,-0.0012,-0.0011,-0.0032,-0.0027,-0.0024,-0.0049,-0.0037,-0.004,-0.0056,-0.0051,-0.0072,-0.0079,-0.0091,-0.0069,-0.0062,-0.0073,-0.0092,-0.0074,-0.0057,-0.0054,-0.0051,-0.0076,-0.0076,-0.0084,-0.0084,-0.0084,-0.0084,0,0.0008,0.0011,0.0014,0.0015,0.0017,0.0021,0.0015,0.0016,0.0004,-0.0,0.0005,-0.0016,-0.0019,-0.0021,-0.0036,-0.0017,-0.0042,-0.0052,-0.0068,-0.0043,-0.0071,-0.0072,-0.008,-0.0081,-0.0081,-0.0082,0,0,0.0021,0.0027,0.0029,0.004,0.0039,0.0043,0.0062,0.0073,0.0089,0.007,0.0086,0.0079,0.0058,0.0055,0.0036,0.0031,0.0029,-0.0002,-0.0003,-0.0021,-0.0001,-0.0012,-0.0015,0.002,0.002,0.002,-0.0031,0,0.0044,0.0066,0.0065,0.0095,0.0107,0.0102,0.0125,0.0132,0.0131,0.0139,0.0121,0.0124,0.0091,0.0086,0.0078,0.0042,0.0031,0.0043,-0.0026,-0.0028,-0.0037,-0.0014,0.0022,-0.0031,-0.0031,-0.0032,-0.0032,0,0.0065,0.0077,0.0108,0.0136,0.0142,0.0159,0.0189,0.0206,0.0217,0.0213,0.021,0.0188,0.018,0.0142,0.0098,0.0104,0.0057,0.0024,0.0021,-0.0007,-0.004,-0.006,-0.0033,-0.0033,-0.0033,-0.0033,-0.0033,0,0.0082,0.0109,0.0136,0.0144,0.0171,0.019,0.0206,0.0227,0.0248,0.0256,0.0264,0.0246,0.0232,0.0181,0.0109,0.0102,0.005,0.0031,-0.0025,-0.0027,-0.0026,-0.0029,0.0,0.0,0.0,0.0,0.0001,0,0.0104,0.0125,0.0145,0.016,0.0198,0.021,0.0253,0.0266,0.029,0.0318,0.0298,0.0306,0.0241,0.0201,0.0129,0.0052,0.0063,-0.0014,-0.0033,-0.0005,-0.0005,-0.0027,-0.003,-0.0001,-0.0001,-0.0001,-0.0,0,0.0112,0.0127,0.0157,0.019,0.0205,0.0228,0.0276,0.0304,0.0326,0.0359,0.0361,0.0351,0.0302,0.023,0.0146,0.008,0.0006,-0.0027,0.0004,-0.0015,-0.0077,-0.0076,-0.0093,-0.0094,-0.0094,-0.0095,-0.0095,0,0.0115,0.0131,0.0172,0.0191,0.0205,0.0245,0.0273,0.0312,0.0343,0.0383,0.0396,0.0373,0.0349,0.0228,0.0148,0.0018,-0.0005,-0.0055,-0.006,-0.0065,-0.0083,-0.0081,-0.008,-0.0096,-0.0096,-0.0096,-0.0096,0,0.0115,0.0129,0.0149,0.0189,0.022,0.0265,0.0309,0.0338,0.0383,0.0409,0.0423,0.0374,0.0322,0.0231,0.0135,0.0039,-0.0026,-0.0062,-0.0062,-0.0066,-0.0069,-0.0086,-0.0084,-0.0098,-0.0098,-0.0098,-0.0098,0,0.0105,0.0116,0.0142,0.0176,0.022,0.0266,0.0299,0.0339,0.0376,0.0424,0.0427,0.0382,0.0365,0.0241,0.0152,0.0062,0.0031,-0.0017,-0.002,-0.0019,0.0018,0.0026,0.0017,0,0,0,0,0,0.0091,0.0099,0.0128,0.0168,0.0215,0.0244,0.0312,0.0345,0.0397,0.0406,0.0421,0.0374,0.0267,0.0231,0.0138,0.0123,0.0003,0.0008,-0.0057,-0.0109,-0.0107,-0.0077,0,0,0,0,0,0,0.0079,0.0098,0.0114,0.0153,0.0182,0.0237,0.0282,0.0322,0.0337,0.0378,0.033,0.0327,0.0228,0.0313,0.0128,0.0105,0.0044,-0.003,-0.0033,-0.011,-0.0108,-0.0107,-0.0075,0,0,0,0,0]}]]